Theta_e
341 343 344 348 346 345 347 345 343 344 344 345 346 345 344 341 340 339 344 345 347 343 340 346 345 345 345 341 340 340 342 342 339 340 336 340 339 340 338 334 339 333 332
343 342 345 344 346 344 345 344 345 345 346 345 345 345 345 344 340 338 342 344 342 344 341 341 346 346 346 344 343 341 342 343 341 338 337 340 338 336 339 340 338 332 334
342 342 343 345 344 342 342 343 344 345 345 347 346 346 346 345 345 340 339 344 344 344 343 341 342 345 345 345 345 343 343 343 342 342 340 339 338 337 334 337 340 339 336
344 342 343 345 343 341 341 341 343 343 343 345 346 346 347 347 346 345 340 342 344 343 343 343 341 341 344 345 345 344 343 342 341 341 340 340 339 339 337 336 337 338 339
347 343 342 341 342 343 341 342 343 343 341 342 346 346 346 346 346 346 342 343 344 345 344 343 342 342 341 346 346 345 344 343 341 340 339 340 339 339 338 337 338 336 337
345 344 338 341 344 340 342 343 343 343 341 341 343 345 346 346 346 346 346 344 345 345 343 344 343 344 341 342 345 345 345 342 343 341 339 340 339 338 338 338 338 337 336
344 342 342 342 343 343 343 343 342 342 342 342 344 343 344 345 345 345 345 345 345 344 344 345 344 345 342 341 339 342 341 341 341 340 338 339 337 338 338 338 338 338 337
341 341 341 341 340 341 341 340 342 343 342 342 342 340 343 344 346 346 346 346 346 346 346 346 346 346 345 344 342 340 338 338 339 340 338 338 338 338 338 338 338 338 337
339 340 340 341 340 340 340 339 341 343 342 341 342 339 341 345 340 344 345 346 346 347 346 346 346 346 345 345 343 341 340 340 339 340 339 340 339 338 338 338 338 338 339
338 338 339 340 340 339 340 340 339 342 342 341 341 340 339 338 343 346 343 343 344 346 346 346 346 346 345 345 345 344 344 342 341 339 340 340 340 339 338 339 339 338 339
338 338 338 339 339 338 339 339 340 339 342 341 341 340 340 341 339 337 341 340 344 346 346 346 346 346 346 345 345 344 344 342 343 340 340 340 341 340 338 338 339 339 339
339 339 339 338 338 338 339 339 339 339 341 342 341 340 340 340 340 339 340 337 338 336 338 340 341 342 345 345 345 344 344 343 343 342 343 341 340 340 338 339 338 338 339
339 339 338 338 338 337 338 339 339 339 341 342 341 341 340 340 340 340 338 337 339 338 339 341 341 342 345 344 344 344 343 342 342 342 342 342 340 341 338 338 337 338 336
338 339 338 337 337 339 340 340 340 340 341 341 342 341 340 340 339 339 339 338 340 337 338 339 341 342 343 343 343 343 343 342 342 342 342 342 340 337 338 339 339 334 335
339 339 339 339 340 340 341 341 340 341 341 341 341 340 340 339 339 340 340 339 338 343 341 337 338 340 341 342 342 341 342 341 342 340 340 340 338 338 339 339 339 339 338
339 340 340 340 340 340 340 341 340 341 342 341 340 341 341 340 338 339 339 339 339 338 341 336 337 339 343 341 340 340 341 340 339 339 339 338 338 337 336 336 337 337 337
339 339 339 339 339 340 341 340 341 341 341 342 342 340 340 340 339 340 340 339 337 337 337 337 338 338 337 338 338 338 337 335 333 335 337 338 337 336 335 334 336 337 334
337 337 338 338 338 339 339 339 339 339 339 338 340 339 339 339 339 338 337 337 336 336 337 336 336 336 336 335 334 333 332 331 331 334 334 335 333 333 333 334 332 332 333
336 336 336 336 337 337 338 339 339 338 337 338 338 338 337 338 337 337 337 336 336 337 337 336 334 334 334 333 331 331 329 327 326 329 332 334 334 334 334 333 332 331 329
334 334 333 334 334 335 336 336 336 335 334 334 335 336 335 335 334 334 334 334 335 334 333 333 333 332 331 331 331 328 324 322 321 323 323 324 324 324 326 323 320 318 318
334 334 333 333 332 332 332 333 332 331 331 330 329 328 328 328 329 329 330 329 331 332 332 332 331 332 331 330 329 326 321 319 316 317 317 316 316 315 314 314 313 312 311
332 332 331 330 330 330 331 331 331 331 330 329 327 327 328 329 329 329 329 329 329 329 328 328 329 328 324 324 325 325 321 319 317 315 314 312 311 311 311 310 309 309 308
331 330 328 327 327 327 328 328 328 327 326 324 323 323 323 323 323 324 323 323 324 325 327 327 321 319 317 319 320 321 320 318 315 314 315 314 314 315 315 314 313 309 307
328 328 327 326 326 326 326 326 325 322 320 321 315 314 315 314 313 313 313 312 310 310 312 313 314 315 315 314 315 318 320 315 313 314 315 312 313 314 313 312 310 308 307
325 326 326 327 326 325 324 323 322 318 317 316 309 309 310 310 310 310 311 309 308 307 307 308 307 308 308 309 310 312 312 312 310 307 310 310 309 309 307 307 307 309 310
323 323 324 323 321 320 319 317 318 317 313 310 311 312 311 311 311 311 311 310 309 308 307 306 304 303 303 303 302 303 305 309 308 309 308 308 308 308 307 307 307 308 308
Wind_Speed
18 17 16 16 14 12 11 11 10 10 11 12 14 14 16 19 22 21 17 19 21 19 17 17 18 18 17 17 18 16 15 14 14 14 13 13 12 12 11 12 13 10 10
18 19 18 17 16 13 11 11 10 10 12 13 13 14 14 17 20 22 21 19 20 20 19 19 19 18 18 18 18 17 17 17 17 16 15 14 14 14 14 14 13 12 12
18 19 18 20 19 15 12 12 13 12 13 14 15 15 16 18 19 23 24 21 20 22 21 20 21 19 18 20 19 20 20 19 19 19 18 17 16 15 15 16 15 15 14
21 21 20 21 20 19 16 15 15 14 14 15 15 15 16 18 19 21 25 24 21 21 23 22 22 19 21 20 21 21 21 21 21 21 18 18 18 18 17 17 17 17 17
23 22 24 26 25 24 21 18 17 17 17 16 14 12 16 16 18 20 23 25 23 22 23 24 22 19 22 22 22 23 23 23 23 22 21 20 20 20 19 19 19 19 18
22 22 23 24 23 23 23 21 20 18 18 17 15 13 13 16 16 18 24 24 25 23 24 25 24 22 24 25 24 24 24 23 23 22 21 21 20 20 20 20 21 22 21
23 24 24 24 23 25 25 22 21 19 19 16 12 15 12 14 15 16 18 20 23 19 21 24 26 22 25 26 27 26 25 25 23 20 19 20 20 21 20 20 22 23 24
25 24 25 26 25 27 24 21 21 19 17 15 7 3 1 3 12 15 18 22 22 19 20 22 24 24 25 27 28 27 27 27 26 23 23 21 21 22 22 21 21 22 23
16 21 23 21 25 26 25 21 21 22 18 15 17 4 2 4 1 9 15 16 17 18 19 21 22 22 23 25 26 26 27 29 28 26 22 22 21 21 23 21 21 20 21
14 15 18 21 20 22 24 22 20 22 21 19 14 17 5 3 3 1 7 14 17 18 19 21 22 24 24 23 24 25 24 27 29 27 26 23 23 21 22 18 18 20 20
14 16 17 17 19 21 22 22 22 22 23 22 17 8 16 6 3 2 2 3 10 16 19 19 22 24 25 25 24 24 22 21 25 26 25 23 23 21 20 19 20 19 20
10 13 18 19 18 17 19 21 21 22 23 25 25 22 12 9 7 4 1 2 4 5 13 15 20 22 26 24 20 18 18 18 20 24 26 26 23 21 19 21 21 19 19
9 6 9 15 18 16 16 18 20 21 21 22 23 23 23 18 15 12 7 3 5 4 5 10 14 16 20 19 14 13 12 11 14 18 20 19 18 21 21 21 20 19 19
8 3 5 9 11 12 14 15 17 19 19 19 20 22 24 23 18 16 12 8 1 2 3 6 6 9 13 14 11 7 8 9 10 10 12 14 15 15 19 18 19 17 17
4 2 2 5 7 9 10 12 14 15 17 18 18 19 18 19 16 14 13 11 6 3 2 1 1 5 5 10 5 3 6 6 6 7 10 12 14 16 14 16 19 19 19
5 1 1 3 4 6 9 10 12 13 14 15 16 17 16 16 18 17 15 12 10 7 1 1 3 8 3 4 4 2 5 5 4 2 10 11 11 11 11 10 14 15 12
10 6 2 1 4 6 7 8 8 10 11 12 12 14 16 16 16 17 13 11 9 6 4 2 3 3 8 8 8 6 5 3 3 3 3 4 6 7 9 8 12 8 6
10 10 8 7 6 4 5 6 6 7 7 8 9 10 11 14 14 14 10 8 7 8 7 4 1 3 6 6 6 4 4 3 4 3 1 1 3 4 6 7 6 6 8
12 12 12 14 13 11 9 8 8 9 8 8 7 6 6 10 13 12 10 8 7 6 8 6 3 3 4 8 10 10 9 7 7 5 3 4 4 5 5 5 7 8 9
14 16 16 17 16 15 13 12 12 11 10 8 6 5 5 5 6 6 6 8 11 12 10 8 7 7 6 6 5 6 8 7 9 8 7 8 10 10 8 8 9 10 10
13 13 13 14 15 16 15 16 17 17 17 17 17 17 17 13 11 8 6 5 5 7 7 6 4 2 3 2 0 3 6 9 10 10 12 12 10 12 13 11 12 11 9
12 13 14 14 15 14 10 9 9 11 12 13 14 13 11 7 5 4 3 3 3 1 1 1 2 3 6 6 5 0 10 8 4 7 8 9 10 9 9 11 12 11 6
9 12 13 14 15 14 11 12 12 14 16 15 14 12 13 12 12 12 11 10 11 8 3 2 9 7 7 8 6 8 7 8 6 5 8 6 3 3 4 5 6 6 6
10 11 12 11 11 11 9 9 10 13 15 16 16 17 18 18 17 19 21 25 27 27 25 23 19 16 13 11 12 9 7 12 11 7 5 3 5 5 5 4 6 4 2
12 12 11 11 11 11 8 8 10 15 19 20 19 18 18 18 15 15 17 22 24 24 22 23 23 21 20 18 11 10 8 4 4 5 4 4 2 4 4 3 2 5 6
14 14 14 12 12 12 9 7 10 15 21 22 20 19 17 16 13 12 14 15 18 16 17 17 19 20 21 21 19 18 13 10 6 3 10 3 4 4 2 2 3 4 2
Wind_Direction
219 220 220 222 218 224 232 231 229 224 220 219 210 217 217 215 217 221 224 214 213 214 209 211 213 211 211 210 210 210 213 212 210 210 210 205 212 206 203 201 201 202 195
228 228 231 228 225 227 234 234 235 238 234 231 227 224 223 223 222 222 223 222 214 216 216 216 215 216 216 219 217 217 214 215 218 217 214 212 215 215 212 213 210 208 204
242 241 235 230 226 225 232 241 239 241 242 235 237 231 227 228 229 225 224 226 216 221 223 224 223 222 224 221 224 224 224 223 224 224 221 221 220 219 224 220 216 217 215
248 239 236 231 228 229 238 235 239 241 246 244 239 241 230 225 232 229 228 227 225 227 226 227 225 226 229 228 226 231 232 231 231 232 229 229 228 222 222 223 222 224 222
250 237 241 243 243 240 237 235 235 240 248 251 247 238 236 230 232 228 226 226 230 232 229 231 231 235 232 231 230 233 236 238 236 235 232 231 232 231 227 227 226 229 227
246 250 246 241 237 234 234 236 237 237 245 250 249 243 244 232 231 230 229 229 235 240 241 234 233 250 239 234 236 237 239 240 240 238 237 235 236 235 234 233 233 232 232
254 254 248 250 237 229 233 237 240 236 239 240 244 242 238 229 225 229 225 229 239 246 237 235 239 248 238 240 240 240 244 245 245 242 241 239 241 240 239 238 236 235 234
248 250 249 249 243 233 229 233 233 231 235 229 225 144 226 234 231 227 234 234 241 243 242 242 246 242 244 245 244 242 245 249 249 239 239 247 245 242 243 243 244 241 240
273 254 244 246 241 237 227 230 227 227 232 227 222 181 133 224 229 223 230 232 239 238 244 244 246 245 248 250 247 246 249 250 249 245 246 250 250 249 245 249 246 247 246
272 259 259 245 231 230 236 232 231 229 228 233 232 233 242 215 189 222 228 230 233 237 243 248 251 251 250 250 251 250 258 250 247 245 243 249 251 250 245 252 249 247 249
284 263 249 246 238 229 229 233 232 230 230 231 223 213 221 227 217 142 237 256 241 241 247 254 258 258 256 252 251 254 251 250 250 247 247 249 260 246 240 246 246 243 247
314 266 238 236 235 231 229 230 230 232 232 235 236 233 225 207 212 196 187 221 244 269 255 259 261 259 256 250 246 246 250 256 253 249 256 261 248 242 239 242 237 243 242
328 280 233 227 228 224 232 232 229 229 232 237 245 238 238 233 234 226 219 218 242 264 265 252 253 253 248 244 239 244 251 257 251 254 256 250 246 244 240 243 246 243 250
324 330 226 207 218 227 233 230 227 228 231 236 247 249 243 233 234 234 225 185 208 265 264 261 258 251 241 240 240 239 250 251 252 253 244 226 228 228 243 246 241 240 237
327 334 217 217 212 215 222 225 223 225 228 233 242 254 249 234 229 230 232 229 189 207 244 259 341 14 312 238 229 245 244 257 253 247 246 225 212 211 225 241 247 243 245
17 60 185 210 211 202 201 214 223 226 233 239 242 243 240 233 229 231 228 215 204 195 212 300 344 345 74 167 133 161 210 156 148 194 225 213 220 220 227 234 240 244 243
43 34 27 204 206 194 199 208 216 226 230 239 239 236 235 231 222 216 209 199 200 184 183 226 342 32 93 100 100 102 114 147 176 198 203 207 211 224 231 235 233 210 199
47 45 53 65 87 135 177 190 191 207 226 228 216 213 217 214 211 190 179 189 206 216 208 204 197 85 110 104 106 115 86 69 54 70 69 238 226 217 226 223 216 196 181
69 68 70 70 75 87 103 116 127 128 141 148 165 174 192 207 188 195 206 211 196 206 214 209 176 131 124 116 102 91 84 77 72 75 88 108 100 116 136 175 177 164 157
83 83 79 77 78 82 87 93 98 100 104 106 117 152 159 160 142 135 149 149 146 124 97 90 90 83 90 102 115 121 93 81 78 90 103 102 110 114 119 130 129 126 129
94 91 89 85 83 82 86 95 97 96 92 90 87 88 85 86 86 92 99 85 81 120 122 125 111 70 61 74 92 182 121 114 94 105 110 109 120 117 119 122 123 115 117
105 101 91 86 80 74 76 86 97 98 94 90 86 82 86 91 103 106 96 88 75 100 140 84 73 51 33 6 351 261 169 151 108 122 111 105 112 108 112 124 119 116 105
115 103 99 92 88 84 81 88 92 95 95 90 87 88 88 86 87 87 81 78 70 59 63 97 92 66 58 41 32 47 89 93 96 108 129 103 127 122 144 152 132 97 38
122 113 109 101 93 85 84 84 88 92 94 94 87 88 90 92 95 99 97 89 82 77 75 77 77 73 70 64 62 65 120 112 92 94 131 103 112 131 166 176 182 154 113
127 114 112 116 105 95 81 86 100 99 98 96 92 86 89 90 90 91 89 89 87 84 80 78 78 77 72 70 75 85 86 85 87 58 68 105 96 112 96 65 317 240 222
130 123 120 121 115 105 98 94 107 109 106 102 96 93 87 90 86 79 80 84 84 83 88 82 74 70 66 63 60 58 56 64 68 90 36 85 87 83 114 46 25 7 343